QPF
0.00 0.01 0.00 0.00 0.00 0.00 0.00 0.01 0.02 0.01 0.01 0.02 0.00 0.00 0.00 0.00 0.00 0.00 0.00 0.00 0.00 0.00
0.02 0.02 0.01 0.01 0.02 0.01 0.00 0.00 0.00 0.01 0.04 0.01 0.00 0.02 0.04 0.02 0.01 0.02 0.00 0.00 0.00 0.00
0.03 0.09 0.07 0.09 0.05 0.02 0.00 0.01 0.02 0.05 0.11 0.05 0.02 0.02 0.04 0.09 0.02 0.13 0.04 0.03 0.02 0.00
0.05 0.04 0.05 0.04 0.02 0.02 0.04 0.05 0.03 0.08 0.06 0.03 0.04 0.03 0.07 0.11 0.11 0.16 0.06 0.10 0.15 0.08
0.02 0.04 0.07 0.06 0.10 0.16 0.13 0.02 0.00 0.01 0.02 0.04 0.03 0.05 0.04 0.03 0.09 0.08 0.04 0.04 0.17 0.05
0.00 0.00 0.01 0.03 0.05 0.13 0.20 0.15 0.10 0.02 0.01 0.00 0.00 0.00 0.02 0.03 0.01 0.05 0.05 0.04 0.09 0.02
0.00 0.00 0.01 0.00 0.00 0.03 0.03 0.07 0.07 0.07 0.06 0.01 0.00 0.00 0.00 0.00 0.00 0.00 0.00 0.00 0.01 0.00
0.00 0.00 0.01 0.01 0.01 0.01 0.01 0.01 0.02 0.01 0.01 0.00 0.00 0.00 0.00 0.04 0.05 0.02 0.02 0.02 0.01 0.00
0.00 0.00 0.00 0.01 0.01 0.01 0.01 0.01 0.01 0.00 0.00 0.00 0.00 0.00 0.00 0.00 0.01 0.00 0.02 0.05 0.01 0.04
0.00 0.00 0.00 0.00 0.01 0.01 0.02 0.02 0.01 0.00 0.00 0.00 0.00 0.00 0.00 0.00 0.00 0.00 0.00 0.01 0.02 0.03
0.00 0.00 0.00 0.00 0.00 0.01 0.01 0.01 0.00 0.02 0.03 0.00 0.00 0.00 0.00 0.00 0.00 0.00 0.00 0.00 0.00 0.00
0.00 0.00 0.00 0.00 0.00 0.00 0.00 0.00 0.01 0.02 0.01 0.00 0.00 0.00 0.00 0.00 0.00 0.00 0.00 0.00 0.00 0.00
0.00 0.00 0.00 0.00 0.00 0.00 0.00 0.00 0.02 0.01 0.00 0.00 0.00 0.00 0.00 0.01 0.00 0.00 0.00 0.00 0.00 0.00
0.00 0.00 0.00 0.00 0.00 0.00 0.00 0.00 0.00 0.00 0.00 0.00 0.02 0.00 0.00 0.01 0.00 0.00 0.00 0.00 0.00 0.00
MSLP
1012.95 1013.29 1013.44 1013.59 1013.90 1014.05 1014.18 1014.18 1013.98 1013.97 1014.00 1014.23 1014.23 1014.50 1014.83 1015.17 1015.31 1015.45 1015.68 1015.87 1015.94 1015.87
1013.07 1012.84 1013.03 1013.12 1013.32 1013.44 1013.40 1013.42 1013.45 1013.52 1013.69 1013.92 1014.03 1014.28 1014.54 1014.64 1014.89 1015.15 1015.14 1015.07 1015.19 1015.39
1013.47 1013.29 1013.13 1013.00 1012.97 1013.03 1012.96 1013.11 1013.08 1013.22 1013.38 1013.52 1013.72 1013.96 1014.07 1014.29 1014.26 1014.60 1014.59 1014.66 1014.80 1014.86
1013.46 1013.43 1013.10 1012.95 1012.82 1012.72 1012.63 1012.73 1013.01 1012.92 1012.97 1013.00 1013.20 1013.27 1013.48 1013.58 1013.75 1014.06 1013.83 1013.97 1014.14 1014.38
1013.63 1013.48 1013.31 1013.00 1012.64 1012.73 1012.58 1012.36 1012.43 1012.55 1012.56 1012.51 1012.61 1012.69 1012.85 1013.08 1013.13 1013.27 1013.40 1013.26 1013.37 1013.57
1013.86 1013.60 1013.28 1012.97 1012.76 1012.69 1012.67 1012.70 1012.31 1012.40 1012.32 1012.21 1012.15 1012.13 1012.10 1012.27 1012.39 1012.42 1012.49 1012.45 1012.57 1012.57
1014.36 1013.85 1013.39 1013.00 1012.83 1012.62 1012.48 1012.39 1012.28 1012.13 1011.99 1012.01 1011.77 1011.65 1011.65 1011.67 1011.67 1011.67 1011.60 1011.57 1011.63 1011.67
1014.36 1013.94 1013.48 1013.00 1012.75 1012.58 1012.37 1012.18 1011.93 1011.80 1011.64 1011.63 1011.46 1011.29 1011.15 1011.19 1011.27 1011.21 1010.98 1010.86 1010.81 1010.82
1014.77 1014.38 1013.93 1013.51 1012.93 1012.46 1012.24 1012.00 1011.78 1011.57 1011.33 1011.23 1011.02 1010.79 1010.80 1010.81 1010.88 1010.82 1010.73 1010.59 1010.30 1010.14
1015.20 1014.83 1014.46 1013.93 1013.42 1012.94 1012.43 1011.99 1011.72 1011.39 1011.14 1010.92 1010.63 1010.47 1010.34 1010.30 1010.32 1010.34 1010.13 1009.98 1009.88 1009.66
1015.35 1015.01 1014.60 1014.12 1013.69 1013.23 1012.74 1012.28 1011.81 1011.31 1010.81 1010.55 1010.16 1009.96 1009.86 1009.82 1009.84 1009.72 1009.51 1009.39 1009.27 1009.10
1015.49 1015.07 1014.63 1014.13 1013.65 1013.19 1012.87 1012.27 1011.71 1011.15 1010.65 1010.28 1009.75 1009.55 1009.56 1009.50 1009.43 1009.19 1009.00 1008.72 1008.47 1008.34
1015.43 1015.06 1014.53 1014.00 1013.48 1012.99 1012.65 1012.03 1011.45 1010.84 1010.35 1009.87 1009.43 1008.94 1008.88 1008.89 1008.95 1008.84 1008.56 1008.25 1008.03 1007.83
1015.31 1014.96 1014.30 1013.49 1013.04 1012.74 1012.36 1011.82 1011.17 1010.68 1010.04 1009.59 1009.12 1008.57 1008.26 1008.13 1008.42 1008.31 1008.26 1008.18 1007.93 1007.52
Thickness
5807 5804 5802 5801 5797 5794 5792 5792 5795 5793 5793 5791 5788 5787 5787 5784 5783 5782 5778 5775 5773 5772
5803 5804 5801 5801 5799 5797 5798 5797 5796 5795 5791 5789 5788 5786 5785 5784 5782 5780 5779 5779 5777 5773
5793 5795 5797 5797 5796 5796 5796 5795 5793 5790 5789 5787 5785 5783 5783 5781 5782 5777 5778 5779 5775 5774
5786 5786 5789 5790 5790 5791 5792 5790 5788 5787 5786 5784 5782 5781 5781 5781 5779 5774 5775 5777 5775 5771
5774 5776 5776 5778 5782 5781 5778 5783 5784 5783 5782 5782 5781 5780 5778 5775 5776 5775 5773 5774 5773 5773
5763 5764 5767 5769 5770 5771 5770 5769 5769 5773 5775 5776 5776 5777 5778 5776 5773 5772 5772 5773 5772 5774
5751 5753 5756 5758 5759 5762 5762 5762 5762 5765 5766 5766 5770 5772 5772 5771 5771 5771 5772 5774 5774 5774
5743 5744 5747 5750 5751 5752 5753 5754 5756 5757 5758 5758 5760 5763 5764 5764 5764 5765 5768 5771 5773 5773
5730 5730 5732 5734 5738 5741 5743 5745 5747 5749 5751 5751 5754 5756 5755 5755 5756 5758 5760 5762 5767 5770
5717 5717 5717 5719 5721 5724 5729 5733 5735 5738 5741 5743 5746 5747 5747 5748 5749 5751 5754 5757 5759 5762
5707 5707 5708 5709 5709 5710 5713 5717 5721 5726 5730 5733 5737 5738 5738 5738 5740 5744 5748 5750 5753 5756
5696 5697 5698 5698 5699 5700 5701 5705 5708 5714 5718 5722 5726 5728 5728 5729 5731 5735 5739 5745 5749 5752
5685 5686 5688 5689 5690 5691 5692 5696 5700 5704 5708 5712 5716 5719 5720 5720 5723 5725 5729 5735 5740 5745
5674 5675 5678 5682 5682 5683 5683 5686 5690 5693 5697 5701 5705 5710 5712 5714 5714 5717 5718 5721 5726 5734